CAPE
0 0 0 0 0 0 0 1 10 120 100 4 0 0 0 1 0 0 11 384 783 873 863 811 1055 1281 1454 1484 1421 1372 1349 1360
0 0 0 0 0 0 0 46 66 143 66 0 0 1 4 0 0 0 0 0 558 935 963 1000 1069 1027 1485 1459 1413 1463 1520 1494
0 0 0 0 6 3 1 27 30 34 59 3 0 27 1 0 0 0 0 9 267 980 1006 1049 1230 1153 1271 1395 1286 1512 1753 1715
0 0 0 2 3 1 8 31 28 2 7 0 4 0 0 0 0 0 0 270 417 1129 1208 1194 1278 1335 1453 1687 1639 1679 1778 1823
0 0 0 0 0 19 43 47 38 7 11 9 5 0 0 0 0 0 0 469 741 1215 1267 1307 1383 1369 1581 1846 1824 1928 2004 1962
0 0 0 0 25 52 143 57 22 0 74 38 0 0 0 0 0 0 0 635 844 1073 1363 1419 1481 1460 1701 1870 1910 2012 2121 2064
0 0 0 0 0 0 53 44 35 2 56 79 1 0 0 0 0 0 29 359 745 951 1231 1465 1609 1598 1760 1946 1978 2058 2181 2171
0 0 0 0 0 0 1 0 0 8 22 24 1 0 0 0 0 2 125 162 220 635 881 1164 1592 1731 1801 1856 2005 2021 2159 2237
0 0 0 0 57 260 380 414 52 7 1 46 4 0 22 557 1074 1254 1133 1165 1153 1241 972 1012 1227 1484 1669 1875 1899 1883 1841 2106
0 0 0 145 223 368 328 366 548 465 83 37 0 121 237 654 1206 1260 1522 1570 1637 1756 1514 1504 1254 1397 1557 1806 1890 1856 1919 1913
0 0 40 114 59 212 333 164 204 399 447 634 826 921 911 1027 1054 1243 1322 1453 1715 1998 2172 1961 1790 1689 1896 2042 1978 1986 2007 2032
0 0 0 23 2 32 91 117 0 38 112 354 492 615 358 235 263 437 714 811 1306 1991 2436 2537 2321 2254 2224 2367 2402 2366 2376 2277
0 46 2 0 0 84 29 2 0 0 0 0 2 0 1 12 33 29 71 176 231 1141 2067 2476 2757 2532 2443 2420 2459 2282 2388 2501
1 19 21 0 0 0 0 0 0 0 0 0 0 0 0 0 0 0 0 0 0 22 429 1103 1845 2665 2591 2451 2319 2434 2573 2569
0 0 0 0 0 0 0 0 0 0 0 0 0 0 0 0 0 0 0 0 0 0 0 10 91 1518 1943 2660 2747 2695 2540 2648
0 0 0 0 0 0 0 0 0 0 0 0 0 0 0 0 0 0 0 0 0 0 0 0 18 60 134 978 1957 3066 2652 2448
0 0 0 0 0 0 0 0 0 0 0 0 0 0 0 0 0 0 0 0 0 0 0 0 0 0 0 194 138 955 2258 2463
0 0 0 0 0 0 0 0 0 0 0 0 0 0 0 0 0 0 0 0 0 0 0 0 0 0 0 68 0 0 87 1204
0 0 0 0 0 0 0 0 0 0 0 0 0 0 0 0 0 0 0 0 0 0 0 0 0 0 0 0 0 1 0 0
CIN
-0 -0 -0 -0 -0 -0 -1 -9 -150 -143 -157 -15 -0 -0 -0 -254 -0 -0 -192 -154 -159 -238 -258 -288 -312 -291 -290 -258 -225 -202 -206 -192
-0 -0 -0 -0 -0 -0 -0 -108 -75 -85 -119 -0 -0 -55 -144 -10 -0 -0 -0 -34 -132 -196 -238 -240 -274 -287 -289 -260 -218 -194 -199 -191
-0 -0 -0 -0 -155 -120 -29 -150 -75 -68 -100 -210 -0 -300 -19 -0 -0 -0 -0 -121 -94 -152 -206 -231 -261 -242 -272 -257 -220 -191 -199 -178
-0 -0 -0 -35 -94 -18 -26 -54 -149 -86 -34 -13 -170 -0 -0 -0 -0 -0 -0 -60 -100 -151 -189 -203 -216 -227 -231 -251 -215 -201 -192 -185
-0 -0 -0 -0 -0 -50 -86 -149 -64 -70 -111 -214 -91 -0 -0 -0 -0 -0 -0 -69 -99 -121 -124 -168 -183 -240 -230 -232 -230 -203 -203 -171
-0 -0 -0 -0 -35 -55 -31 -34 -37 -0 -79 -121 -53 -0 -0 -0 -0 -0 -0 -70 -60 -102 -125 -128 -149 -184 -233 -245 -230 -203 -203 -188
-0 -0 -0 -0 -0 -0 -21 -23 -14 -14 -52 -78 -78 -0 -0 -0 -0 -0 -100 -48 -61 -61 -86 -111 -159 -206 -230 -240 -219 -210 -190 -171
-0 -0 -0 -0 -0 -0 -0 -1 -0 -103 -61 -164 -104 -0 -0 -0 -0 -140 -80 -64 -102 -71 -80 -92 -132 -145 -150 -184 -186 -188 -181 -174
-0 -0 -0 -0 -105 -99 -104 -115 -134 -44 -40 -181 -115 -0 -217 -110 -88 -92 -110 -120 -118 -106 -83 -115 -156 -148 -136 -142 -165 -185 -163 -155
-0 -0 -0 -148 -208 -181 -202 -251 -187 -181 -207 -188 -0 -224 -219 -193 -132 -152 -201 -217 -203 -188 -175 -128 -131 -156 -144 -156 -142 -149 -145 -127
-0 -0 -123 -130 -212 -156 -94 -308 -301 -272 -243 -144 -203 -213 -242 -229 -240 -273 -307 -296 -275 -261 -235 -161 -119 -128 -91 -107 -114 -114 -104 -106
-0 -0 -0 -204 -288 -324 -227 -230 -0 -344 -364 -259 -166 -115 -298 -426 -393 -330 -316 -375 -287 -287 -241 -209 -159 -109 -77 -63 -57 -59 -68 -73
-1 -75 -54 -0 -29 -236 -104 -12 -0 -0 -0 -0 -157 -0 -241 -447 -441 -484 -469 -438 -420 -296 -240 -236 -208 -118 -54 -55 -40 -34 -66 -85
-79 -105 -96 -0 -0 -0 -0 -0 -0 -0 -0 -0 -0 -0 -0 -0 -0 -0 -0 -0 -0 -168 -400 -342 -276 -180 -108 -35 -24 -50 -62 -68
-0 -0 -0 -0 -0 -0 -0 -0 -0 -0 -0 -0 -0 -0 -0 -0 -0 -0 -0 -0 -0 -0 -0 -155 -525 -229 -177 -99 -69 -37 -28 -39
-0 -0 -0 -0 -0 -0 -0 -0 -0 -0 -0 -0 -0 -0 -0 -0 -0 -0 -0 -0 -0 -0 -0 -0 -254 -527 -413 -308 -166 -24 -7 -9
-0 -0 -0 -0 -0 -0 -0 -0 -0 -0 -0 -0 -0 -0 -0 -0 -0 -0 -0 -0 -0 -0 -0 -0 -0 -0 -0 -426 -237 -237 -48 -7
-0 -0 -0 -0 -0 -0 -0 -0 -0 -0 -0 -0 -0 -0 -0 -0 -0 -0 -0 -0 -0 -0 -0 -0 -0 -0 -0 -437 -0 -0 -121 -121
-0 -0 -0 -0 -0 -0 -0 -0 -0 -0 -0 -0 -0 -0 -0 -0 -0 -0 -0 -0 -0 -0 -0 -0 -0 -0 -0 -0 -8 -92 -0 -0
Wind_Speed
24 23 20 17 16 16 22 21 18 21 20 20 19 11 17 21 15 19 18 7 11 18 17 14 14 14 14 13 13 14 18 17
30 25 21 18 14 21 19 23 24 21 22 20 19 12 21 23 22 29 27 24 10 15 15 14 15 13 12 14 14 15 14 15
20 19 23 15 14 16 16 17 20 25 22 17 18 24 24 24 25 26 22 21 6 14 15 13 13 14 12 13 13 11 10 12
27 27 22 19 15 14 17 19 18 18 20 17 17 21 21 25 27 25 23 20 8 14 13 13 14 13 13 12 12 11 9 8
30 25 24 23 16 16 15 16 15 19 19 10 10 15 13 9 23 23 19 6 13 13 15 15 15 14 12 12 13 11 10 9
20 17 17 21 11 11 12 18 20 20 14 12 12 14 6 10 20 21 21 13 13 13 16 14 13 12 11 12 12 13 10 10
23 22 18 24 28 25 15 13 19 22 11 6 2 10 6 17 18 19 10 8 10 9 10 10 9 7 6 8 10 12 11 11
28 25 21 25 23 23 28 16 22 15 9 9 1 9 4 9 18 21 14 12 17 14 5 4 5 5 5 6 8 10 10 12
26 25 21 20 19 9 10 15 13 14 14 4 2 6 5 10 12 16 15 15 19 22 21 8 3 4 6 6 6 8 11 11
26 21 20 14 6 6 10 11 13 12 10 7 8 11 10 11 12 15 19 21 24 27 28 22 16 7 5 5 6 7 10 11
20 18 8 13 13 10 2 11 15 12 8 9 11 10 12 16 16 18 21 24 27 29 31 31 25 12 5 4 3 4 7 11
18 21 20 18 17 16 10 11 14 11 10 8 6 7 14 18 18 21 23 26 28 31 31 34 28 15 11 6 3 3 4 7
15 16 16 20 21 16 17 11 8 9 10 11 10 12 15 17 20 23 26 28 29 30 31 32 30 20 13 9 6 6 8 6
13 15 17 23 18 15 9 11 5 8 10 12 15 17 20 23 24 26 28 29 30 30 31 31 31 30 26 12 11 16 13 11
15 9 9 6 3 4 6 9 10 9 15 17 19 22 24 26 29 29 30 31 31 32 32 33 33 33 33 35 36 23 18 14
9 6 7 7 7 8 11 12 13 15 19 21 25 27 30 31 32 32 34 35 34 35 35 36 35 34 34 34 35 29 23 21
4 6 7 12 12 12 13 15 18 19 21 23 26 30 32 34 36 37 38 38 37 37 37 38 37 37 36 34 35 35 36 29
10 10 6 13 15 16 17 20 23 24 27 29 32 35 37 38 39 39 40 40 40 40 40 40 39 38 37 35 35 36 36 33
7 8 11 14 17 20 23 27 30 32 33 36 37 39 40 40 40 41 41 42 43 43 44 42 40 39 38 38 37 36 35 35
Wind_Direction
275 284 295 300 295 308 306 311 315 317 326 329 343 357 354 337 337 341 325 89 165 175 167 162 164 167 165 160 160 162 171 171
264 287 298 284 301 305 300 298 301 311 317 327 347 358 309 327 310 290 267 249 149 169 168 166 171 165 163 166 165 167 168 172
280 281 293 285 288 311 309 303 302 305 310 323 328 307 301 299 320 288 240 222 93 161 166 161 163 168 166 169 170 169 167 173
273 277 292 288 276 293 303 299 304 310 310 320 323 305 306 290 309 299 293 201 107 131 123 140 155 162 170 172 175 178 176 174
272 281 284 289 281 282 301 310 295 304 308 323 333 334 346 353 310 311 301 77 124 116 126 134 149 153 158 166 176 175 170 172
259 272 294 296 269 288 289 299 296 296 298 290 305 316 328 152 287 284 276 132 115 119 141 143 147 152 158 164 170 173 175 174
258 265 287 282 282 277 285 293 297 294 290 185 204 336 48 157 226 271 19 58 105 88 132 144 154 158 167 176 176 177 181 185
257 262 281 283 296 288 298 286 287 304 313 289 53 331 56 322 294 289 357 343 341 356 131 147 174 186 192 202 198 186 189 195
261 265 275 283 302 333 344 336 299 292 292 156 292 321 351 1 10 13 355 339 335 352 352 16 276 260 231 230 220 206 202 200
266 259 264 280 320 24 17 343 348 347 5 91 105 75 54 14 332 336 321 322 328 332 333 346 348 326 239 264 223 222 210 207
256 252 243 263 293 291 336 338 341 344 9 62 74 42 1 345 347 347 331 328 334 336 332 336 345 5 4 322 251 241 212 206
255 245 251 257 272 268 297 295 320 354 1 352 354 347 333 337 349 350 350 341 338 338 337 328 331 349 353 349 329 288 259 222
255 261 261 265 273 268 273 270 316 344 352 338 342 338 344 350 348 344 338 335 336 339 336 333 330 337 343 342 323 306 312 304
264 269 262 271 276 273 273 280 310 334 326 326 328 326 327 329 331 336 335 334 334 332 329 328 328 327 319 334 332 324 315 309
276 272 285 355 38 357 323 325 324 307 308 311 315 317 317 322 328 324 325 326 329 329 325 321 323 326 320 307 300 321 319 311
275 305 330 326 340 327 333 334 331 319 309 323 311 314 313 317 319 321 319 319 319 320 320 318 322 323 325 321 318 312 317 311
245 287 319 327 315 327 324 322 326 318 325 323 317 313 312 313 315 314 313 315 316 315 315 314 319 320 322 324 321 317 306 308
267 300 331 314 320 326 326 321 324 322 317 317 313 310 311 310 310 310 308 309 309 310 312 311 314 318 320 323 322 321 318 312
308 338 342 328 324 315 315 312 312 311 311 307 308 309 308 308 309 309 309 308 308 306 304 308 312 314 317 318 317 318 320 319